Location: Unspecified
(58.7730°N, 5.8460°E)
Time: 06:26:05
(UTC+02:00)

Resurs 1-4 Rocket - Visible Passes

Search period start: 24 September 2014 00:00
Search period end: 04 October 2014 00:00
Orbit: 801 x 814 km, 98.3° (Epoch: 23 September)

Date Brightness Start Highest point End Pass type
(mag) Time Alt. Az. Time Alt. Az. Time Alt. Az.
24 Sep 5.1 03:49:12 10° ENE 03:50:11 10° ENE 03:51:09 10° E visible
24 Sep 3.2 05:26:18 10° NNE 05:31:27 47° E 05:36:34 10° S visible
25 Sep 3.8 05:02:02 10° NNE 05:06:50 33° E 05:11:36 10° SSE visible
25 Sep 2.2 06:41:48 10° NNE 06:47:03 61° WNW 06:52:17 10° SW visible
26 Sep 4.3 04:37:54 10° NE 04:42:08 23° E 04:46:20 10° SE visible
26 Sep 2.1 06:17:19 10° NNE 06:22:40 84° WNW 06:28:00 10° SSW visible
27 Sep 4.8 04:14:03 10° NE 04:17:20 16° E 04:20:37 10° ESE visible
27 Sep 2.5 05:52:53 10° NNE 05:58:13 70° ESE 06:03:32 10° S visible
28 Sep 5.0 03:51:00 10° ENE 03:52:28 11° ENE 03:53:55 10° E visible
28 Sep 3.1 05:28:31 10° NNE 05:33:41 49° E 05:38:50 10° S visible
29 Sep 3.7 05:04:14 10° NNE 05:09:05 34° E 05:13:54 10° SSE visible
29 Sep 2.2 06:44:02 10° NNE 06:49:16 59° WNW 06:54:29 10° SW visible
30 Sep 4.3 04:40:05 10° NE 04:44:23 24° E 04:48:40 10° SE visible
30 Sep 2.1 06:19:32 10° NNE 06:24:54 81° WNW 06:30:14 10° SSW visible
01 Oct 4.7 04:16:11 10° NE 04:19:37 17° E 04:23:02 10° ESE visible
01 Oct 2.4 05:55:06 10° NNE 06:00:27 72° ESE 06:05:46 10° S visible
02 Oct 5.0 03:52:57 10° ENE 03:54:44 12° ENE 03:56:32 10° E visible
02 Oct 3.0 05:30:43 10° NNE 05:35:56 51° E 05:41:06 10° S visible
03 Oct 3.6 05:06:26 10° NNE 05:11:20 36° E 05:16:12 10° SSE visible
03 Oct 2.3 06:46:15 10° NNE 06:51:29 56° WNW 06:56:40 10° SW visible
